EW8476 Weather Reports


Display with metric or nautical units.
time (UTC)temp
F
wind
direction
speed
MPH
gust
MPH
rain 1hr
in
rain 24hr
in
rain mn
in
humidity
%
barometer
mb
20260510034559 73 136 4.0 6.0 0.00 0.03 0.03 73 938.3
20260510033546 74 135 4.0 11.0 0.00 0.03 0.03 73 938.2
20260510032525 74 137 3.0 7.0 0.00 0.03 0.03 72 938.2
20260510031600 74 144 4.0 6.0 0.00 0.03 0.03 71 938.0
20260510030625 75 139 4.0 9.0 0.00 0.03 0.03 69 937.9
20260510025530 75 129 4.0 9.0 0.00 0.03 0.03 69 937.6
20260510024613 75 133 3.0 7.0 0.00 0.03 0.03 67 937.5
20260510023559 76 134 2.0 6.0 0.00 0.03 0.03 64 937.5
20260510022604 78 133 4.0 8.0 0.00 0.03 0.03 60 937.5
20260510021524 79 138 3.0 9.0 0.00 0.03 0.03 52 937.3
20260510020612 80 87 0.0 3.0 0.00 0.03 0.03 49 937.2
20260510015559 81 75 0.0 2.0 0.00 0.03 0.03 46 937.0
20260510014546 82 330 1.0 2.0 0.00 0.03 0.03 44 937.0
20260510013528 82 122 1.0 2.0 0.00 0.03 0.03 44 936.9
20260510012604 82 156 0.0 2.0 0.00 0.03 0.03 45 936.8
20260510011551 83 158 0.0 3.0 0.00 0.03 0.03 44 936.9
20260510010538 84 0.0 1.0 0.00 0.03 0.03 42 936.9
20260510005525 85 0.0 1.0 0.00 0.03 0.03 44 936.9
20260510004628 85 180 0.0 2.0 0.00 0.03 0.03 43 936.8
20260510003552 86 33 1.0 2.0 0.00 0.03 0.03 45 936.9
20260510002536 86 333 0.0 2.0 0.00 0.03 0.03 44 936.7
20260510001542 86 188 3.0 5.0 0.00 0.03 0.03 39 936.8
20260510000642 88 211 1.0 2.0 0.00 0.03 0.03 38 936.7
20260509235549 91 165 1.0 2.0 0.00 0.03 0.03 35 937.0
20260509234536 90 156 1.0 2.0 0.00 0.03 0.03 34 936.9
20260509233524 89 271 2.0 5.0 0.00 0.03 0.03 36 936.8
20260509232613 87 187 2.0 5.0 0.00 0.03 0.03 39 936.7
20260509231554 86 229 4.0 7.0 0.00 0.03 0.03 40 936.6
20260509230537 87 232 6.0 10.0 0.00 0.03 0.03 38 936.6
20260509225520 86 211 3.0 6.0 0.00 0.03 0.03 43 936.8
20260509224601 87 214 4.0 9.0 0.00 0.03 0.03 42 936.8
20260509223548 86 203 5.0 8.0 0.00 0.03 0.03 42 936.8
20260509222535 86 149 2.0 6.0 0.00 0.03 0.03 43 936.7
20260509221522 86 201 4.0 7.0 0.00 0.03 0.03 42 936.8
20260509220610 86 239 7.0 14.0 0.00 0.03 0.03 44 936.8
20260509215552 85 222 2.0 11.0 0.00 0.03 0.03 46 936.7
20260509214537 85 243 8.0 13.0 0.00 0.03 0.03 46 936.8
20260509213520 85 205 5.0 9.0 0.00 0.03 0.03 46 936.8
20260509212608 85 233 6.0 15.0 0.00 0.03 0.03 48 937.0
20260509211555 85 288 8.0 11.0 0.00 0.03 0.03 48 937.0
20260509210542 84 215 7.0 13.0 0.00 0.03 0.03 48 937.0
20260509205528 84 265 12.0 19.0 0.00 0.03 0.03 50 937.3
20260509204609 84 271 6.0 11.0 0.00 0.03 0.03 51 937.4
20260509203544 83 274 6.0 11.0 0.00 0.03 0.03 54 937.4
20260509202546 83 255 9.0 14.0 0.00 0.03 0.03 52 937.6
20260509201609 83 218 9.0 13.0 0.00 0.03 0.03 54 937.7
20260509200546 84 233 7.0 13.0 0.00 0.03 0.03 51 937.9
20260509195529 83 247 6.0 11.0 0.00 0.03 0.03 54 938.0
20260509194607 82 213 8.0 17.0 0.00 0.03 0.03 56 938.2
20260509193555 82 279 4.0 12.0 0.00 0.03 0.03 57 938.3
20260509192557 82 230 7.0 15.0 0.00 0.03 0.03 58 938.4
20260509191616 81 268 8.0 14.0 0.00 0.03 0.03 59 938.4
20260509190558 80 239 6.0 14.0 0.00 0.03 0.03 59 938.4
20260509184523 80 221 11.0 18.0 0.00 0.03 0.03 62 938.6
20260509183611 80 239 12.0 24.0 0.00 0.03 0.03 63 938.5
20260509182606 80 256 11.0 16.0 0.00 0.03 0.03 64 938.7
20260509181526 79 207 11.0 16.0 0.00 0.03 0.03 66 938.8
20260509180605 78 221 10.0 14.0 0.00 0.03 0.03 68 938.8
20260509175547 78 206 6.0 15.0 0.00 0.03 0.03 69 938.9
20260509174534 78 211 8.0 13.0 0.00 0.03 0.03 68 939.1
20260509173520 78 220 5.0 10.0 0.00 0.03 0.03 73 939.3
20260509172617 77 226 7.0 13.0 0.00 0.03 0.03 71 939.1
20260509171544 76 196 7.0 15.0 0.00 0.03 0.03 73 939.1
20260509170529 77 200 9.0 13.0 0.00 0.03 0.03 75 939.2
20260509165613 76 186 8.0 14.0 0.00 0.03 0.03 76 939.0
20260509164600 76 178 8.0 14.0 0.00 0.03 0.03 77 939.2
20260509163538 76 174 8.0 12.0 0.00 0.03 0.03 78 939.1
20260509162521 74 178 7.0 14.0 0.00 0.03 0.03 81 939.1
20260509161629 75 186 10.0 18.0 0.00 0.03 0.03 82 939.3
20260509160554 74 163 8.0 13.0 0.00 0.03 0.03 83 939.0
20260509155602 73 176 8.0 13.0 0.00 0.03 0.03 85 938.8
20260509154528 72 197 9.0 16.0 0.01 0.03 0.03 89 938.8
20260509153637 69 209 9.0 14.0 0.01 0.03 0.03 98 938.6
20260509152601 69 203 10.0 14.0 0.01 0.03 0.03 99 938.5
20260509151609 69 225 9.0 17.0 0.01 0.03 0.03 99 938.4
20260509150526 68 209 5.0 9.0 0.01 0.03 0.03 99 938.4
20260509145617 67 237 6.0 12.0 0.01 0.03 0.03 99 938.3
20260509144613 67 191 11.0 19.0 0.01 0.02 0.02 99 937.6
20260509143532 67 194 11.0 18.0 0.01 0.02 0.02 99 937.5
20260509142520 67 199 13.0 18.0 0.01 0.02 0.02 99 937.3
20260509141600 67 205 13.0 20.0 0.01 0.02 0.02 99 937.5
20260509140547 67 191 11.0 17.0 0.00 0.02 0.02 99 937.6
20260509135534 66 209 5.0 13.0 0.00 0.02 0.02 99 937.7
20260509134615 66 204 10.0 16.0 0.00 0.01 0.01 99 937.6
20260509133605 66 216 7.0 13.0 0.00 0.01 0.01 99 937.8
20260509132552 66 205 6.0 12.0 0.00 0.01 0.01 99 937.9
20260509131537 66 174 7.0 17.0 0.00 0.01 0.01 99 938.1
20260509130520 66 178 3.0 8.0 0.00 0.01 0.01 99 938.6
20260509125629 66 226 3.0 5.0 0.01 0.01 0.01 99 938.5
20260509124547 66 332 3.0 6.0 0.00 0.01 0.01 99 938.3
20260509123534 66 356 4.0 8.0 0.01 0.01 0.01 99 938.0
20260509122611 66 98 4.0 6.0 0.01 0.01 0.01 99 937.8
20260509121558 66 89 3.0 6.0 0.01 0.01 0.01 99 938.0
20260509120544 66 15 6.0 11.0 0.01 0.01 0.01 99 938.5
20260509115531 66 15 4.0 12.0 0.00 0.00 0.00 99 938.6
20260509114518 66 356 3.0 7.0 0.00 0.00 0.00 99 938.5
20260509113606 66 340 3.0 8.0 0.00 0.00 0.00 99 938.6
20260509112551 66 17 3.0 11.0 0.00 0.00 0.00 99 938.6
20260509111538 66 7 3.0 10.0 0.00 0.00 0.00 99 938.8
20260509110520 66 30 5.0 11.0 0.00 0.00 0.00 99 939.1
20260509105602 66 28 4.0 12.0 0.00 0.00 0.00 99 939.1
20260509104547 66 3 7.0 18.0 0.00 0.00 0.00 99 939.2
20260509103531 66 14 6.0 13.0 0.00 0.00 0.00 99 939.2
20260509102518 66 5 8.0 15.0 0.00 0.00 0.00 99 939.2
20260509101606 67 358 6.0 21.0 0.00 0.00 0.00 98 938.7
20260509100552 67 168 4.0 12.0 0.00 0.00 0.00 98 937.6
20260509095534 67 134 3.0 10.0 0.00 0.00 0.00 98 937.6
20260509094613 67 196 3.0 8.0 0.00 0.00 0.00 98 937.3
20260509093554 66 199 5.0 10.0 0.00 0.00 0.00 98 937.1
20260509092541 66 189 4.0 11.0 0.00 0.00 0.00 98 937.1
20260509091546 66 213 2.0 8.0 0.00 0.00 0.00 98 936.9
20260509090608 67 114 1.0 2.0 0.00 0.00 0.00 98 937.3
20260509085555 67 56 0.0 2.0 0.00 0.00 0.00 98 937.5
20260509084542 66 0.0 2.0 0.00 0.00 0.00 98 937.8
20260509083530 66 235 1.0 3.0 0.00 0.00 0.00 98 937.7
20260509082517 66 180 3.0 5.0 0.00 0.00 0.00 98 937.6
20260509081555 66 164 2.0 5.0 0.00 0.00 0.00 98 937.7
20260509080535 66 162 2.0 4.0 0.00 0.00 0.00 98 937.8
20260509075521 66 191 3.0 6.0 0.00 0.00 0.00 98 937.9
20260509074609 66 183 5.0 6.0 0.00 0.00 0.00 98 937.7
20260509073540 66 190 4.0 8.0 0.00 0.00 0.00 98 937.7
20260509072549 66 191 6.0 9.0 0.00 0.00 0.00 98 937.7
20260509071635 66 206 5.0 10.0 0.00 0.00 0.00 98 937.6
20260509070605 66 199 7.0 10.0 0.00 0.00 0.00 98 937.8
20260509065548 67 197 6.0 10.0 0.00 0.00 0.00 98 937.6
20260509064605 66 188 7.0 10.0 0.00 0.00 0.00 98 937.6
20260509063612 67 187 7.0 11.0 0.00 0.00 0.00 98 937.5
20260509062556 67 194 5.0 7.0 0.00 0.00 0.00 98 937.6
20260509061556 67 202 6.0 9.0 0.00 0.00 0.00 97 937.7
20260509060521 67 198 7.0 10.0 0.00 0.00 0.00 97 937.6
20260509055557 67 174 8.0 12.0 0.00 0.00 0.00 97 937.5
20260509054544 66 185 8.0 15.0 0.00 0.00 0.00 97 937.7
20260509053532 66 178 7.0 12.0 0.00 0.00 0.00 97 937.6
20260509052518 66 185 8.0 13.0 0.00 0.00 0.00 97 937.7
20260509051602 66 184 7.0 11.0 0.00 0.00 0.00 97 937.6
20260509050554 65 176 9.0 13.0 0.00 0.00 0.00 97 937.3
20260509045537 66 188 7.0 13.0 0.00 0.00 0.00 97 937.4
20260509044605 65 184 8.0 11.0 0.00 0.00 0.00 97 937.1
20260509043552 65 175 7.0 11.0 0.00 0.00 0.00 96 936.6
20260509042536 65 176 5.0 9.0 0.00 0.00 0.00 96 936.0
20260509041522 65 161 3.0 9.0 0.00 0.00 0.00 96 936.2
20260509040605 66 178 5.0 7.0 0.00 0.00 0.00 95 936.4
20260509035545 66 163 4.0 7.0 0.00 0.00 0.00 95 936.0